Home > Weather > Brantford > Past weeks

Flag for Canada Weather for the Past 2 Weeks in Brantford, Ontario, Canada

Now
21 °F

Light snow. Mostly cloudy.


Feels Like: 5 °F
Forecast: 9 / 22 °F
Wind: 23 mph from Southwest

Location: Hamilton Airport

Current Time: Feb 12, 2016 at 1:52:27 PM

Latest Report: Feb 12, 2016 at 1:00 PM


Visibility: 1 mi

Pressure: 29.93 "Hg

Humidity: 74%

Dew point: 14 °F

Location of BrantfordLocation

Historic Weather in Brantford — Graph

°F

Brantford Temperature Yesterday

Maximum temperature yesterday: 14 °F (at 2:00 PM)
Minimum temperature yesterday: 1 °F (at 8:00 AM)
Average temperature yesterday: 8 °F

High & Low Weather Summary for the Past Weeks

 TemperatureHumidityPressure
High55 °F (Feb 3, 1:00 PM)100% (Jan 28, 8:00 PM)30.35 "Hg (Jan 28, 8:00 PM)
Low1 °F (Feb 11, 8:00 AM)45% (Feb 6, 2:00 PM)29.49 "Hg (Feb 9, 2:00 PM)
Average30 °F80%29.88 "Hg
* Reported Jan 28 12:00 Noon — Feb 12 12:50 PM, Brantford, Weather by CustomWeather, © 2016

Note: Actual official high and low records may vary slightly from our data, if they occured in-between our weather recording intervals... More about our weather records

Advertising

Brantford Weather History for the Previous 24 Hours

 ConditionsComfort  
Time TempWeatherWind HumidityBarometerVisibility
12:50 PM
Fri, Feb 12
21 °FLight snow. Mostly cloudy.20 mph74%29.94 "Hg1 mi
12:00 PM21 °FLight snow. Mostly cloudy.21 mph68%29.96 "Hg6 mi
11:00 AM21 °FMostly cloudy.17 mph63%29.99 "Hg15 mi
10:00 AM18 °FMostly cloudy.18 mph68%30.02 "Hg15 mi
9:00 AM16 °FMostly cloudy.17 mph62%30.05 "Hg15 mi
8:00 AM12 °FPartly sunny.10 mph73%30.07 "Hg15 mi
7:00 AM10 °FPartly cloudy.13 mph72%30.10 "Hg15 mi
6:00 AM10 °FPassing clouds.10 mph72%30.12 "Hg15 mi
5:00 AM10 °FPassing clouds.10 mph72%30.12 "Hg15 mi
4:00 AM14 °FPassing clouds.10 mph62%30.13 "Hg15 mi
3:00 AM12 °FPassing clouds.13 mph67%30.15 "Hg15 mi
2:00 AM7 °FPassing clouds.8 mph72%30.18 "Hg15 mi
1:00 AM9 °FFrigid.8 mph72%30.20 "Hg15 mi
12:00 AM9 °FPassing clouds.12 mph72%30.22 "Hg15 mi
11:00 PM
Thu, Feb 11
9 °FPassing clouds.8 mph72%30.24 "Hg15 mi
10:00 PM10 °FPassing clouds.7 mph79%30.25 "Hg15 mi
9:00 PM10 °FPassing clouds.8 mph72%30.25 "Hg15 mi
8:00 PM7 °FPassing clouds.6 mph72%30.25 "Hg15 mi
7:00 PM9 °FPassing clouds.6 mph61%30.25 "Hg15 mi
6:00 PM10 °FPassing clouds.7 mph61%30.23 "Hg15 mi
4:00 PM12 °FPartly sunny.13 mph62%30.18 "Hg15 mi
3:00 PM12 °FScattered clouds.16 mph57%30.15 "Hg15 mi
2:00 PM14 °FScattered clouds.16 mph57%30.13 "Hg15 mi
1:00 PM12 °FScattered clouds.16 mph52%30.12 "Hg15 mi
Weather by CustomWeather, © 2016

See weather overviewHow to use our weather pages